星链-30976 (STARLINK-30976 )
导读
STARLINK-30976是美国太空探索技术公司(SpaceX)星链(Starlink)星座中的一颗卫星,于2023年11月28日发射升空。星链项目旨在构建全球卫星互联网星座,为全球多地提供高速低延迟互联网服务,该卫星入轨后进一步扩充了星链星座的部署规模,助力项目全球覆盖目标推进。
Basic Information
目录编号:
58447
目录名称:
STARLINK-30976
国际标识:
2023-183L
轨道中心:
EARTH
卫星名称:
星链-30976
卫星全名:
星链-30976 (STARLINK-30976 )
卫星状态:
在轨 (已飞行1011 天)
发射日期:
2023-11-28 UTC
国别 :
美国
(US)
星等 :
--
Orbit Information
| 数据来源 | 国际轨道数据 |
| 星历时间: | 2026-09-04T07:47:40+0800 10小时前 查看轨道信息 |
| 半长轴: | 6861.199km |
| 偏心率: | 0.0001532 |
| 轨道倾角: | 43.002° |
| 近地点辐角 | 272.498° |
| 升交点赤经 | 114.659° |
| 平近点角 | 87.569° |
| 近地点: | 482.01km |
| 远地点: | 484.114km |
| 周期: | 94.267分钟 |
| 每日圈数: | 15.27576 |
Detailed Information
固有亮度:
5
最大亮度:
0.3
卫星平台:
Starlink v2.0 mini
覆盖范围:
全球
运营商:
太空探索技术公司
运营商所在国:
美国
制造商(研发单位):
太空探索技术公司
制造商所在国:
美国
使用方式:
暂无
Satellite Introduction
星链(Starlink)计划是由太空探索技术公司(SpaceX)提出的一个巨型低轨卫星互联网星座项目,计划在2019年至2024年间在太空搭建由约1.2万颗卫星组成的“星链”网络,其中1584颗将部署在地球上空550千米处的近地轨道,并从2020年开始工作。该卫星仍在工作。
2D Orbit Map
3D Orbit Map
Orbit Altitude Analysis Chart
Orbit Inclination Analysis Chart
Orbit Comprehensive Analysis Chart
View Comprehensive ChartConjunction Data List
| Event ID | Objects | TCA | Miss Dist (km) | Collision Risk Probability | Collision Risk Index (CRI) | Action |
|---|---|---|---|---|---|---|
| CDM_260903-085805-476005-844721 |
STARLINK-5220
(54760)
STARLINK-30976
(58447) | 2026-09-03T 08:58:36+0000 |
0.574 km
远距离 | 1.228635E-4 高风险 | 0.77 | |
| CDM_260904-105005-322105-844721 |
STARLINK-4377
(53221)
STARLINK-30976
(58447) | 2026-09-04T 10:50:58+0000 |
1.250 km
极远距离 | 1.217319E-5 中风险 | 0.57 | |
| CDM_260904-113805-322105-844721 |
STARLINK-4377
(53221)
STARLINK-30976
(58447) | 2026-09-04T 11:38:06+0000 |
1.643 km
极远距离 | 4.900608E-6 低风险 | 0.49 | |
| CDM_260903-072405-476005-844721 |
STARLINK-5220
(54760)
STARLINK-30976
(58447) | 2026-09-03T 07:24:26+0000 |
1.680 km
极远距离 | 3.858494E-6 低风险 | 0.47 | |
| CDM_260903-103205-476005-844721 |
STARLINK-5220
(54760)
STARLINK-30976
(58447) | 2026-09-03T 10:32:46+0000 |
2.659 km
极远距离 | 1.334258E-6 低风险 | 0.38 |

